This demonstration page uses our WeatherBlox Daily Observations layout. Learn more.

Left ArrowRight Arrow

39.51506, -84.39828

Hourly Observations for October 28, 2015

Temp ( °F °C ) Dew Point ( °F °C ) Humidity (%) Winds ( mph kmh ) Pressure ( in mb ) Visibility ( mi km ) Precip ( " mm )
12:15 am 00:15 Cloudy with Rain 57 13.8 53 11.5 86 86 SE 7 11 29.91 1013 5 8 N/A
12:35 am 00:35 Cloudy with Light Snow 57 13.8 53 11.5 86 86 ESE 13 20 29.88 1012 5 8 N/A
12:55 am 00:55 Cloudy with Light Rain 57 13.8 52 11.3 85 85 ESE 14 22 29.83 1010 10 16 N/A
1:15 am 01:15 Cloudy with Heavy Rain 57 13.8 52 11.2 84 84 SE 15 24 29.83 1010 7 11 N/A
1:35 am 01:35 Cloudy with Heavy Rain 57 13.8 53 11.4 86 86 SE 16 26 29.83 1010 4 6 N/A
1:55 am 01:55 Cloudy with Rain 57 13.8 53 11.6 87 87 ESE 13 20 29.80 1009 5 8 N/A
2:15 am 02:15 Cloudy with Rain 57 13.8 53 11.5 86 86 SE 12 19 29.80 1009 5 8 N/A
2:35 am 02:35 Cloudy with Snow 57 13.8 53 11.5 86 86 SSE 8 13 29.77 1008 3 5 N/A
2:55 am 02:55 Cloudy with Light Rain 57 13.8 53 11.5 86 86 SSE 10 17 29.77 1008 5 8 N/A
3:15 am 03:15 Cloudy with Drizzle 57 13.8 53 11.5 86 86 SSE 9 15 29.74 1007 7 11 N/A
3:35 am 03:35 Cloudy with Light Rain 57 13.8 53 11.5 86 86 SSE 8 13 29.74 1007 5 8 N/A
3:55 am 03:55 Cloudy with Rain 57 13.8 53 11.5 86 86 SSE 8 13 29.71 1006 7 11 N/A
4:15 am 04:15 Cloudy with Rain 57 13.8 53 11.6 87 87 SSE 10 17 29.71 1006 5 8 N/A
4:35 am 04:35 Cloudy with Rain 57 13.8 53 11.5 86 86 S 6 9 29.71 1006 7 11 N/A
4:55 am 04:55 Cloudy with Rain 57 13.8 53 11.7 87 87 SSE 5 7 29.68 1005 5 8 N/A
5:15 am 05:15 Cloudy with Light Rain 57 13.8 53 11.7 87 87 S 6 9 29.68 1005 4 6 N/A
5:35 am 05:35 Cloudy with Rain 57 13.8 53 11.7 87 87 S 5 7 29.68 1005 7 11 N/A
5:55 am 05:55 Cloudy with Heavy Rain 57 13.8 53 11.8 88 88 N N/A 29.68 1005 4 6 N/A
6:15 am 06:15 Cloudy with Heavy Rain 57 13.8 53 11.9 88 88 S 7 11 29.68 1005 3 5 N/A
6:35 am 06:35 Cloudy with Rain 57 13.8 54 12 89 89 SSW 8 13 29.68 1005 7 11 N/A
6:55 am 06:55 Cloudy with Rain 57 13.8 54 12 89 89 S 5 7 29.68 1005 5 8 N/A
7:15 am 07:15 Cloudy with Light Rain 57 13.8 54 12 89 89 N N/A 29.65 1004 10 16 N/A
7:35 am 07:35 Cloudy with Rain 57 13.8 54 12 89 89 S 6 9 29.65 1004 7 11 N/A
7:55 am 07:55 Cloudy with Light Rain 57 13.8 54 12 89 89 SSE 7 11 29.65 1004 5 8 N/A
8:15 am 08:15 Cloudy with Light Rain 57 14.1 54 12.4 90 90 S 6 9 29.65 1004 10 16 N/A
8:35 am 08:35 Cloudy with Light Rain 58 14.2 55 12.5 90 90 SE 5 7 29.62 1003 7 11 N/A
8:55 am 08:55 Cloudy with Light Rain 58 14.2 55 12.5 90 90 S 7 11 29.62 1003 7 11 N/A
9:15 am 09:15 Cloudy with Light Rain 60 15.3 56 13.5 89 89 S 7 11 29.62 1003 5 8 N/A
9:35 am 09:35 Cloudy with Light Rain 60 15.3 56 13.5 89 89 N N/A 29.62 1003 7 11 N/A
9:55 am 09:55 Cloudy with Light Rain 60 15.3 56 13.3 88 88 SSE 6 9 29.62 1003 10 16 N/A
10:15 am 10:15 Cloudy with Light Rain 60 15.3 56 13.3 88 88 S 6 9 29.62 1003 10 16 N/A
10:35 am 10:35 Cloudy with Light Rain 60 15.4 56 13.5 89 89 S 7 11 29.59 1002 10 16 N/A
10:55 am 10:55 Cloudy with Light Rain 61 16 57 14 88 88 S 12 19 29.59 1002 10 16 N/A
11:15 am 11:15 Cloudy 61 16 57 14 88 88 SSW 8 13 29.59 1002 10 16 N/A
11:35 am 11:35 Cloudy with Light Rain 62 16.6 58 14.6 88 88 SSW 12 19 29.59 1002 7 11 N/A
11:55 am 11:55 Cloudy with Mist and Fog 62 16.6 58 14.6 88 88 S 13 20 29.59 1002 5 8 N/A
12:15 pm 12:15 Cloudy with Light Rain 63 17 59 15 88 88 S 10 17 29.59 1002 3 5 N/A
12:35 pm 12:35 Cloudy with Drizzle 63 17 59 15.1 89 89 SSW 9 15 29.59 1002 4 6 N/A
12:55 pm 12:55 Cloudy with Drizzle 63 17 59 15.2 89 89 SSW 10 17 29.59 1002 4 6 N/A
1:15 pm 13:15 Cloudy 63 17.3 60 15.5 89 89 SSW 9 15 29.56 1001 7 11 N/A
1:35 pm 13:35 Cloudy 64 18 61 16.1 89 89 SW 16 26 29.56 1001 7 11 N/A
1:55 pm 13:55 Cloudy 67 19.5 63 17 86 86 SW 15 24 29.56 1001 10 16 N/A
2:15 pm 14:15 Mostly Cloudy with Haze 68 19.8 62 16.8 83 83 WSW 16 26 29.56 1001 5 8 N/A
2:35 pm 14:35 Mostly Cloudy 69 20.8 62 16.8 78 78 SW 17 28 29.56 1001 10 16 N/A
2:55 pm 14:55 Partly Cloudy 69 20.8 60 15.5 72 72 WSW 17 28 29.56 1001 10 16 N/A
3:15 pm 15:15 Mostly Cloudy 69 20.8 60 15.8 73 73 SW 17 28 29.56 1001 10 16 N/A
3:35 pm 15:35 Cloudy 69 20.8 60 15.7 73 73 SW 15 24 29.56 1001 10 16 N/A
3:55 pm 15:55 Cloudy 69 20.8 60 15.5 72 72 SW 13 20 29.53 1000 10 16 N/A
4:15 pm 16:15 Mostly Cloudy 69 20.8 61 15.9 74 74 SW 15 24 29.56 1001 10 16 N/A
4:35 pm 16:35 Mostly Cloudy 69 20.8 60 15.7 73 73 SW 20 31 29.56 1001 10 16 N/A
4:55 pm 16:55 Mostly Cloudy with Drizzle 64 18 59 15.1 83 83 SW 13 20 29.56 1001 10 16 N/A
5:15 pm 17:15 Mostly Cloudy 64 18 59 14.8 82 82 SW 16 26 29.56 1001 10 16 N/A
5:35 pm 17:35 Mostly Cloudy 65 18.1 57 14 77 77 SW 14 22 29.56 1001 10 16 N/A
5:55 pm 17:55 Cloudy 67 19.5 59 14.9 75 75 SW 13 20 29.56 1001 10 16 N/A
6:15 pm 18:15 Mostly Cloudy 64 18 56 13.6 76 76 SW 15 24 29.56 1001 10 16 N/A
6:35 pm 18:35 Mostly Cloudy 64 18 56 13.5 75 75 SW 10 17 29.56 1001 10 16 N/A
6:55 pm 18:55 Cloudy with Rain 63 17.1 56 13.5 80 80 W 18 30 29.59 1002 10 16 N/A
7:15 pm 19:15 Mostly Cloudy 61 16 54 12.2 78 78 W 17 28 29.59 1002 10 16 N/A
7:35 pm 19:35 Partly Cloudy 61 16 53 11.6 75 75 W 18 30 29.62 1003 10 16 N/A
7:55 pm 19:55 Clear 60 15.3 51 10.6 74 74 WSW 12 19 29.62 1003 10 16 N/A
8:15 pm 20:15 Clear 60 15.3 51 10.5 73 73 WSW 9 15 29.62 1003 10 16 N/A
8:35 pm 20:35 Clear 60 15.3 51 10.4 73 73 WSW 9 15 29.62 1003 10 16 N/A
8:55 pm 20:55 Clear 57 13.8 49 9.5 75 75 WSW 7 11 29.62 1003 10 16 N/A
9:15 pm 21:15 Clear 57 13.8 49 9.4 75 75 WSW 7 11 29.65 1004 10 16 N/A
9:35 pm 21:35 Clear 57 13.8 49 9.5 75 75 WSW 7 11 29.65 1004 10 16 N/A
9:55 pm 21:55 Clear 57 13.8 48 9 73 73 WSW 8 13 29.65 1004 10 16 N/A
10:15 pm 22:15 Clear 56 13.5 49 9.3 76 76 SW 8 13 29.65 1004 10 16 N/A
10:35 pm 22:35 Clear 56 13.2 49 9.3 77 77 SW 8 13 29.65 1004 10 16 N/A
10:55 pm 22:55 Clear 55 12.5 48 8.9 79 79 SW 7 11 29.65 1004 10 16 N/A
11:15 pm 23:15 Partly Cloudy 55 12.5 49 9.4 82 82 SW 7 11 29.65 1004 10 16 N/A
11:35 pm 23:35 Mostly Cloudy 56 13.2 50 9.8 80 80 SW 10 17 29.65 1004 10 16 N/A
11:55 pm 23:55 Cloudy 57 13.8 51 10.3 80 80 SW 8 13 29.65 1004 10 16 N/A

Powered by AerisWeather